Location: Unspecified
(28.1530°N, 80.6520°W)
Time: 19:15:40
(UTC+02:00)

Hubble Space Telescope - Visible Passes

Search period start: 26 April 2018 00:00
Search period end: 06 May 2018 00:00
Orbit: 537 x 541 km, 28.5° (Epoch: 25 April)

Date Brightness Start Highest point End Pass type
(mag) Time Alt. Az. Time Alt. Az. Time Alt. Az.
26 Apr 1.0 03:26:00 10° WSW 03:29:52 50° S 03:29:52 50° S visible
27 Apr 0.8 03:15:37 10° WSW 03:19:41 60° SSE 03:20:36 46° ESE visible
28 Apr 0.7 03:05:16 10° WSW 03:09:22 70° SSE 03:11:13 31° E visible
28 Apr 3.8 04:46:27 10° W 04:46:35 11° W 04:46:35 11° W visible
29 Apr 0.7 02:54:56 10° WSW 02:59:04 79° S 03:01:43 21° E visible
29 Apr 3.4 04:36:10 10° W 04:37:04 16° W 04:37:04 16° W visible
30 Apr 0.7 02:44:38 10° W 02:48:46 87° S 02:52:07 15° E visible
30 Apr 3.0 04:25:53 10° W 04:27:28 22° W 04:27:28 22° W visible
01 May 0.8 02:34:20 10° W 02:38:29 88° N 02:42:26 11° E visible
01 May 2.4 04:15:36 10° W 04:17:47 30° W 04:17:47 30° W visible
02 May 0.8 02:24:03 10° W 02:28:12 85° N 02:32:20 10° E visible
02 May 1.9 04:05:18 10° W 04:08:03 40° W 04:08:03 40° W visible
03 May 1.4 03:55:02 10° W 03:58:17 50° WSW 03:58:17 50° WSW visible
04 May 1.1 03:44:45 10° W 03:48:30 53° SSW 03:48:30 53° SSW visible
05 May 1.2 03:34:29 10° W 03:38:27 45° SSW 03:38:43 44° S visible
